Flag for U.S.A. Weather past 2 weeks in Bridgeport, Connecticut, U.S.A.

Now
72 °F

Sunny.


Feels Like: 77 °F
Forecast: 63 / 77 °F
Wind: 12 mph from East

Location: Sikorsky Memorial Airport

Current Time: Sep 5, 2015 at 11:24:30 AM

Latest Report: Sep 5, 2015 at 10:52 AM


Visibility: 10 mi

Pressure: 30.29 "Hg

Humidity: 55%

Dew point: 55 °F

Location of BridgeportLocation

Historic Weather in Bridgeport — Graph

°F

Bridgeport temperature yesterday

Maximum temperature yesterday: 81 °F (at 1:52 PM)
Minimum temperature yesterday: 71 °F (at 11:52 PM)
Average temperature yesterday: 77 °F

Past Weeks' High & Low Weather Summary

 TemperatureHumidityPressure
High87 °F (Aug 31, 4:52 PM)91% (Aug 21, 9:52 PM)30.29 "Hg (Aug 21, 9:52 PM)
Low60 °F (Aug 29, 5:52 AM)34% (Aug 26, 5:52 PM)29.81 "Hg (Aug 25, 4:52 PM)
Average76 °F67%30.01 "Hg
* Reported Aug 21 9:52 AM — Sep 5 9:52 AM, Bridgeport, Weather by CustomWeather, © 2015

Note: Actual official high and low records may vary slightly from our data, if they occured in-between our weather recording intervals... More about our weather records

Advertising

Bridgeport weather history for previous 24 hours

 ConditionsComfort  
Time TempWeatherWind HumidityBarometerVisibility
9:52 AM
Sat, Sep 5
70 °FSunny.12 mph61%30.29 "Hg10 mi
8:52 AM68 °FSunny.9 mph63%30.29 "Hg10 mi
7:52 AM65 °FSunny.10 mph70%30.29 "Hg10 mi
6:52 AM64 °FClear.10 mph75%30.27 "Hg10 mi
5:52 AM63 °FClear.7 mph78%30.25 "Hg10 mi
4:52 AM65 °FClear.9 mph73%30.23 "Hg10 mi
3:52 AM66 °FClear.8 mph73%30.22 "Hg10 mi
2:52 AM66 °FClear.8 mph75%30.24 "Hg10 mi
1:52 AM68 °FClear.9 mph70%30.24 "Hg10 mi
12:52 AM70 °FOvercast.12 mph71%30.23 "Hg10 mi
11:52 PM
Fri, Sep 4
71 °FClear.16 mph71%30.22 "Hg10 mi
10:52 PM72 °FClear.17 mph71%30.21 "Hg10 mi
9:52 PM73 °FClear.17 mph74%30.20 "Hg10 mi
8:52 PM74 °FClear.15 mph74%30.18 "Hg10 mi
7:52 PM76 °FSunny.12 mph67%30.15 "Hg10 mi
6:52 PM78 °FSunny.10 mph62%30.13 "Hg10 mi
5:52 PM79 °FSunny.14 mph65%30.12 "Hg10 mi
4:52 PM80 °FSunny.13 mph60%30.11 "Hg10 mi
3:52 PM81 °FSunny.13 mph58%30.11 "Hg10 mi
2:52 PM80 °FPartly sunny.12 mph64%30.11 "Hg10 mi
1:52 PM81 °FSunny.10 mph62%30.12 "Hg10 mi
12:52 PM80 °FScattered clouds.13 mph64%30.11 "Hg10 mi
11:52 AM80 °FScattered clouds.18 mph67%30.09 "Hg10 mi
Weather by CustomWeather, © 2015

See weather overviewHow to use our weather pages